Regional Weather Roundup
Issued by NWS Cleveland, OH

Home | Current Version | Previous Version | Text Only | Print | Product List | Glossary Off
Versions: 1 2 3 4 5 6 7 8 9 10 11 12 13 14 15 16 17 18 19 20 21 22 23 24 25 26 27 28 29 30 31 32 33 34 35 36 37 38 39 40 41 42 43 44 45 46 47 48 49 50

000
ASUS41 KCLE 200102
RWRCLE
OHIO REGIONAL WEATHER ROUNDUP
NATIONAL WEATHER SERVICE CLEVELAND, OH
800 PM EST SUN FEB 19 2017

NOTE: "FAIR" INDICATES FEW OR NO CLOUDS BELOW 12,000 FEET WITH NO
SIGNIFICANT WEATHER AND/OR OBSTRUCTIONS TO VISIBILITY.

OHZ001>008-015>018-024>027-034-035-043-044-200200-
   NORTHWEST OHIO

CITY           SKY/WX    TMP DP  RH WIND       PRES   REMARKS
DEFIANCE       CLEAR     47  32  56 CALM      30.10R
FINDLAY        CLEAR     52  33  48 W3        30.09R
TOLEDO EXPRESS PTCLDY    47  30  51 CALM      30.09R
TOLEDO EXEC    CLOUDY    50  33  52 SW3       30.10R
LIMA           CLEAR     51  35  54 W3        30.11R
$$

OHZ009>014-019>023-028>033-038-089-200200-
   NORTHEAST OHIO

CITY           SKY/WX    TMP DP  RH WIND       PRES   REMARKS
CLE-HOPKINS    CLOUDY    54  34  46 SW3       30.11R
CLE-LAKEFRONT  CLOUDY    52  36  54 CALM      30.08R
CUY CO. ARPT   PTCLDY    45  37  76 SE5       30.10R
LORAIN-ELYRIA  CLEAR     49  34  56 W5        30.10R
ASHTABULA      PTCLDY    41  34  76 CALM      30.11R
AKRON-CANTON   CLEAR     49  33  54 NW3       30.10R
WOOSTER        CLEAR     44  34  67 W3        30.10R
MANSFIELD      CLEAR     54  33  45 W6        30.10R
YOUNGSTOWN     PTCLDY    50  30  46 NW5       30.10R
$$

OHZ042-051>053-060>062-070>072-077>081-200200-
  SOUTHWEST OHIO

CITY           SKY/WX    TMP DP  RH WIND       PRES   REMARKS
CINC-COVINGTON CLEAR     48  45  89 S6        30.13S
CINC-LUNKEN    CLEAR     51  47  86 CALM      30.15R
HAMILTON       CLEAR     43  40  89 CALM      30.15R
DAYTON         CLEAR     49  43  80 S6        30.14R
WRIGHT-PAT AFB CLEAR     47  46  95 CALM      30.13R
DAYTON GENERAL CLEAR     50  44  80 S3        30.13R
WILMINGTON     CLEAR     46  44  93 S7        30.14R FOG
$$

OHZ036-037-039>041-045>050-054>059-063>069-073>076-082>088-200200-
  CENTRAL AND SOUTHEAST OHIO

CITY           SKY/WX    TMP DP  RH WIND       PRES   REMARKS
COLUMBUS       PTCLDY    49  43  80 S3        30.13R
OSU AIRPORT    CLEAR     48  45  89 S6        30.12R
BOLTON FIELD   CLEAR     45  42  91 SW7       30.13R
RICKENBACK AFB CLEAR     46  43  91 S5        30.13R
NEWARK         CLEAR     47  43  86 S5        30.12R
MARION         CLEAR     46  35  65 W3        30.11R
LANCASTER      CLEAR     40  38  93 CALM      30.13S FOG
ZANESVILLE     CLEAR     48  42  80 S6        30.12S
NEW PHILLY     NOT AVBL
$$




USA.gov is the U.S. government's official web portal to all federal, state and local government web resources and services.